FLOCK 4BE-26

Last updated on Mon Sep 16 2024 00:02:03 GMT+0000 (Coordinated Universal Time)

1 60484U 24149S 24258.90363728 .00017391 00000+0 84669-3 0 9997 2 60484 97.4374 333.9879 0005203 16.9318 343.2089 15.18421961 4414
UTC large
Height (km)
Speed (km/s)
/
Latitude / Longitude
Inclination (degrees)
Orbital Period (minutes)
Azimuth
Elevation
Range (km)
Doppler Factor

Next 0 passes for location: London (51.5072 / 0.1276)

Sorry there are no passes over London.